Time,TemperatureF,DewpointF,PressureIn,WindDirection,WindDirectionDegrees,WindSpeedMPH,WindSpeedGustMPH,Humidity,HourlyPrecipIn,Conditions,Clouds,dailyrainin,SoftwareType,DateUTC
2013-03-28 00:00:00,38.2,31.0,29.95,NW,322,3.0,5.0,75,0.00,,,0.00,Wunderground v.1.15,2013-03-28 04:00:00,
2013-03-28 00:01:00,38.2,31.0,29.95,WNW,288,4.0,7.0,75,0.00,,,0.00,weatherlink.com 1.10,2013-03-28 04:01:00,
2013-03-28 00:10:00,38.0,31.1,29.95,WNW,300,3.0,4.0,76,0.00,,,0.00,Wunderground v.1.15,2013-03-28 04:10:00,
2013-03-28 00:16:00,37.8,31.0,29.95,NW,313,2.0,16.0,76,0.00,,,0.00,weatherlink.com 1.10,2013-03-28 04:16:00,
2013-03-28 00:20:00,37.9,31.0,29.95,WNW,298,3.0,3.0,76,0.00,,,0.00,Wunderground v.1.15,2013-03-28 04:20:00,
2013-03-28 00:30:00,37.8,30.9,29.95,WNW,298,3.0,3.0,76,0.00,,,0.00,Wunderground v.1.15,2013-03-28 04:30:00,
2013-03-28 00:40:00,37.8,30.9,29.95,NNW,333,3.0,3.0,76,0.00,,,0.00,Wunderground v.1.15,2013-03-28 04:40:00,
2013-03-28 00:47:00,37.8,31.0,29.95,NNW,327,3.0,9.0,75,0.00,,,0.00,weatherlink.com 1.10,2013-03-28 04:47:00,
2013-03-28 01:00:00,37.6,30.7,29.95,NW,315,2.0,3.0,76,0.00,,,0.00,Wunderground v.1.15,2013-03-28 05:00:00,
2013-03-28 01:10:00,37.4,30.8,29.94,NW,319,2.0,2.0,77,0.00,,,0.00,Wunderground v.1.15,2013-03-28 05:10:00,
2013-03-28 01:16:00,37.3,31.0,29.94,NW,307,8.0,10.0,78,0.00,,,0.00,weatherlink.com 1.10,2013-03-28 05:16:00,
2013-03-28 01:30:00,37.1,31.2,29.94,NW,309,3.0,4.0,79,0.00,,,0.00,Wunderground v.1.15,2013-03-28 05:30:00,
2013-03-28 01:40:00,37.0,31.1,29.94,WNW,301,2.0,3.0,79,0.00,,,0.00,Wunderground v.1.15,2013-03-28 05:40:00,
2013-03-28 01:46:00,36.9,31.0,29.94,WNW,292,2.0,10.0,79,0.00,,,0.00,weatherlink.com 1.10,2013-03-28 05:46:00,
2013-03-28 02:00:00,37.0,31.1,29.94,NNW,333,3.0,5.0,79,0.00,,,0.00,Wunderground v.1.15,2013-03-28 06:00:00,
2013-03-28 02:10:00,37.0,31.1,29.94,NW,319,3.0,3.0,79,0.00,,,0.00,Wunderground v.1.15,2013-03-28 06:10:00,
2013-03-28 02:17:00,37.0,31.0,29.94,NW,306,2.0,9.0,79,0.00,,,0.00,weatherlink.com 1.10,2013-03-28 06:17:00,
2013-03-28 02:30:00,37.1,31.2,29.93,NW,315,3.0,4.0,79,0.00,,,0.00,Wunderground v.1.15,2013-03-28 06:30:00,
2013-03-28 02:40:00,37.1,30.9,29.93,WNW,302,3.0,3.0,78,0.00,,,0.00,Wunderground v.1.15,2013-03-28 06:40:00,
2013-03-28 02:46:00,37.1,31.0,29.93,NNW,346,2.0,9.0,78,0.00,,,0.00,weatherlink.com 1.10,2013-03-28 06:46:00,
2013-03-28 03:00:00,37.1,30.9,29.93,NNW,328,3.0,3.0,78,0.00,,,0.00,Wunderground v.1.15,2013-03-28 07:00:00,
2013-03-28 03:10:00,37.2,30.7,29.93,North,355,4.0,4.0,77,0.00,,,0.00,Wunderground v.1.15,2013-03-28 07:10:00,
2013-03-28 03:18:00,37.2,31.0,29.93,NNW,346,0.0,9.0,77,0.00,,,0.00,weatherlink.com 1.10,2013-03-28 07:18:00,
2013-03-28 03:30:00,37.1,30.6,29.93,NNW,331,3.0,4.0,77,0.00,,,0.00,Wunderground v.1.15,2013-03-28 07:30:00,
2013-03-28 03:40:00,37.1,30.6,29.93,NNW,341,3.0,5.0,77,0.00,,,0.00,Wunderground v.1.15,2013-03-28 07:40:00,
2013-03-28 03:47:00,37.1,31.0,29.93,WNW,294,5.0,11.0,78,0.00,,,0.00,weatherlink.com 1.10,2013-03-28 07:47:00,
2013-03-28 04:00:00,37.1,30.6,29.93,NW,310,3.0,3.0,77,0.00,,,0.00,Wunderground v.1.15,2013-03-28 08:00:00,
2013-03-28 04:10:00,37.0,30.5,29.93,NNW,327,3.0,5.0,77,0.00,,,0.00,Wunderground v.1.15,2013-03-28 08:10:00,
2013-03-28 04:18:00,37.1,31.0,29.93,NW,309,2.0,9.0,77,0.00,,,0.00,weatherlink.com 1.10,2013-03-28 08:18:00,
2013-03-28 04:30:00,37.1,30.2,29.93,NNW,338,3.0,6.0,76,0.00,,,0.00,Wunderground v.1.15,2013-03-28 08:30:00,
2013-03-28 04:40:00,37.1,30.2,29.93,NW,304,3.0,3.0,76,0.00,,,0.00,Wunderground v.1.15,2013-03-28 08:40:00,
2013-03-28 04:48:00,37.1,31.0,29.93,NNW,328,2.0,11.0,77,0.00,,,0.00,weatherlink.com 1.10,2013-03-28 08:48:00,
2013-03-28 05:00:00,37.0,30.1,29.93,NNW,337,3.0,6.0,76,0.00,,,0.00,Wunderground v.1.15,2013-03-28 09:00:00,
2013-03-28 05:10:00,37.1,30.2,29.93,NW,322,3.0,3.0,76,0.00,,,0.00,Wunderground v.1.15,2013-03-28 09:10:00,
2013-03-28 05:18:00,37.1,30.0,29.93,NNW,331,3.0,8.0,76,0.00,,,0.00,weatherlink.com 1.10,2013-03-28 09:18:00,
2013-03-28 05:30:00,37.1,29.9,29.93,NW,325,3.0,3.0,75,0.00,,,0.00,Wunderground v.1.15,2013-03-28 09:30:00,
2013-03-28 05:40:00,37.3,30.1,29.93,NNW,329,4.0,4.0,75,0.00,,,0.00,Wunderground v.1.15,2013-03-28 09:40:00,
2013-03-28 05:48:00,37.1,30.0,29.93,West,266,4.0,8.0,75,0.00,,,0.00,weatherlink.com 1.10,2013-03-28 09:48:00,
2013-03-28 06:01:00,37.1,29.9,29.93,WNW,299,2.0,2.0,75,0.00,,,0.00,Wunderground v.1.15,2013-03-28 10:01:00,
2013-03-28 06:10:00,37.1,29.9,29.93,NNW,331,3.0,3.0,75,0.00,,,0.00,Wunderground v.1.15,2013-03-28 10:10:00,
2013-03-28 06:18:00,37.0,30.0,29.93,West,279,3.0,7.0,75,0.00,,,0.00,weatherlink.com 1.10,2013-03-28 10:18:00,
2013-03-28 06:30:00,37.1,29.9,29.94,NNW,338,3.0,3.0,75,0.00,,,0.00,Wunderground v.1.15,2013-03-28 10:30:00,
2013-03-28 06:40:00,37.0,29.8,29.94,NNW,335,3.0,3.0,75,0.00,,,0.00,Wunderground v.1.15,2013-03-28 10:40:00,
2013-03-28 06:49:00,36.9,30.0,29.94,NNW,344,4.0,7.0,75,0.00,,,0.00,weatherlink.com 1.10,2013-03-28 10:49:00,
2013-03-28 07:00:00,37.0,29.8,29.95,NNW,342,3.0,3.0,75,0.00,,,0.00,Wunderground v.1.15,2013-03-28 11:00:00,
2013-03-28 07:10:00,36.9,30.0,29.95,NNW,340,3.0,4.0,76,0.00,,,0.00,Wunderground v.1.15,2013-03-28 11:10:00,
2013-03-28 07:19:00,36.9,30.0,29.95,NNE,19,3.0,8.0,76,0.00,,,0.00,weatherlink.com 1.10,2013-03-28 11:19:00,
2013-03-28 07:30:00,37.2,30.0,29.95,North,350,4.0,4.0,75,0.00,,,0.00,Wunderground v.1.15,2013-03-28 11:30:00,
2013-03-28 07:40:00,37.7,30.2,29.96,NNW,330,4.0,4.0,74,0.00,,,0.00,Wunderground v.1.15,2013-03-28 11:40:00,
2013-03-28 07:49:00,37.9,30.0,29.96,NNE,22,5.0,7.0,73,0.00,,,0.00,weatherlink.com 1.10,2013-03-28 11:49:00,
2013-03-28 08:00:00,38.3,30.4,29.96,West,261,3.0,3.0,73,0.00,,,0.00,Wunderground v.1.15,2013-03-28 12:00:00,
2013-03-28 08:10:00,38.8,30.5,29.97,NW,310,3.0,5.0,72,0.00,,,0.00,Wunderground v.1.15,2013-03-28 12:10:00,
2013-03-28 08:19:00,39.3,31.0,29.97,NNW,330,3.0,7.0,71,0.00,,,0.00,weatherlink.com 1.10,2013-03-28 12:19:00,
2013-03-28 08:30:00,39.6,30.6,29.97,North,355,5.0,9.0,70,0.00,,,0.00,Wunderground v.1.15,2013-03-28 12:30:00,
2013-03-28 08:35:00,39.7,31.0,29.97,NNE,16,4.0,10.0,70,0.00,,,0.00,weatherlink.com 1.10,2013-03-28 12:35:00,
2013-03-28 08:50:00,40.1,31.0,29.97,NNE,12,6.0,10.0,69,0.00,,,0.00,weatherlink.com 1.10,2013-03-28 12:50:00,
2013-03-28 09:00:00,40.5,31.1,29.97,North,5,4.0,5.0,69,0.00,,,0.00,Wunderground v.1.15,2013-03-28 13:00:00,
2013-03-28 09:10:00,41.0,30.9,29.97,North,360,3.0,4.0,67,0.00,,,0.00,Wunderground v.1.15,2013-03-28 13:10:00,
2013-03-28 09:20:00,41.3,30.8,29.97,NNE,19,5.0,5.0,66,0.00,,,0.00,Wunderground v.1.15,2013-03-28 13:20:00,
2013-03-28 09:30:00,41.6,30.7,29.97,NW,315,4.0,6.0,65,0.00,,,0.00,Wunderground v.1.15,2013-03-28 13:30:00,
2013-03-28 09:40:00,42.0,30.7,29.97,North,350,4.0,4.0,64,0.00,,,0.00,Wunderground v.1.15,2013-03-28 13:40:00,
2013-03-28 09:50:00,42.7,31.4,29.97,NNW,338,3.0,4.0,64,0.00,,,0.00,Wunderground v.1.15,2013-03-28 13:50:00,
2013-03-28 10:00:00,42.9,31.2,29.98,North,355,5.0,5.0,63,0.00,,,0.00,Wunderground v.1.15,2013-03-28 14:00:00,
2013-03-28 10:10:00,43.2,30.6,29.98,North,355,4.0,6.0,61,0.00,,,0.00,Wunderground v.1.15,2013-03-28 14:10:00,
2013-03-28 10:20:00,43.2,30.0,29.98,NNE,13,3.0,11.0,61,0.00,,,0.00,weatherlink.com 1.10,2013-03-28 14:20:00,
2013-03-28 10:30:00,44.0,30.6,29.98,NNE,20,4.0,6.0,59,0.00,,,0.00,Wunderground v.1.15,2013-03-28 14:30:00,
2013-03-28 10:36:00,43.7,30.0,29.98,NNW,339,5.0,11.0,59,0.00,,,0.00,weatherlink.com 1.10,2013-03-28 14:36:00,
2013-03-28 10:50:00,43.3,30.3,29.98,SSW,200,5.0,5.0,60,0.00,,,0.00,Wunderground v.1.15,2013-03-28 14:50:00,
2013-03-28 11:00:00,43.6,29.8,29.98,NNW,331,5.0,5.0,58,0.00,,,0.00,Wunderground v.1.15,2013-03-28 15:00:00,
2013-03-28 11:10:00,44.2,29.9,29.98,NE,55,5.0,5.0,57,0.00,,,0.00,Wunderground v.1.15,2013-03-28 15:10:00,
2013-03-28 11:20:00,44.6,30.7,29.98,North,351,4.0,4.0,58,0.00,,,0.00,Wunderground v.1.15,2013-03-28 15:20:00,
2013-03-28 11:30:00,45.1,30.8,29.98,NW,312,2.0,3.0,57,0.00,,,0.00,Wunderground v.1.15,2013-03-28 15:30:00,
2013-03-28 11:37:00,44.6,30.0,29.98,North,360,5.0,11.0,57,0.00,,,0.00,weatherlink.com 1.10,2013-03-28 15:37:00,
2013-03-28 11:50:00,44.2,30.3,29.99,NE,43,4.0,5.0,58,0.00,,,0.00,Wunderground v.1.15,2013-03-28 15:50:00,
2013-03-28 12:00:00,44.1,30.3,29.99,NE,44,6.0,7.0,58,0.00,,,0.00,Wunderground v.1.15,2013-03-28 16:00:00,
2013-03-28 12:07:00,44.3,31.0,29.99,NE,54,5.0,9.0,59,0.00,,,0.00,weatherlink.com 1.10,2013-03-28 16:07:00,
2013-03-28 12:20:00,44.7,32.9,29.99,NE,46,5.0,5.0,63,0.00,,,0.00,Wunderground v.1.15,2013-03-28 16:20:00,
2013-03-28 12:30:00,45.4,32.3,29.99,NW,321,5.0,5.0,60,0.00,,,0.00,Wunderground v.1.15,2013-03-28 16:30:00,
2013-03-28 12:36:00,45.6,32.0,29.99,ENE,73,3.0,9.0,60,0.00,,,0.00,weatherlink.com 1.10,2013-03-28 16:36:00,
2013-03-28 12:50:00,45.8,31.9,29.99,NE,46,5.0,7.0,58,0.00,,,0.00,Wunderground v.1.15,2013-03-28 16:50:00,
2013-03-28 13:00:00,45.2,32.1,29.99,NE,39,5.0,5.0,60,0.00,,,0.00,Wunderground v.1.15,2013-03-28 17:00:00,
2013-03-28 13:07:00,45.6,32.0,29.99,NW,318,6.0,9.0,60,0.00,,,0.00,weatherlink.com 1.10,2013-03-28 17:07:00,
2013-03-28 13:20:00,45.0,34.7,29.99,ENE,67,2.0,2.0,67,0.00,,,0.00,Wunderground v.1.15,2013-03-28 17:20:00,
2013-03-28 13:30:00,45.7,32.6,29.99,NNE,12,4.0,7.0,60,0.00,,,0.00,Wunderground v.1.15,2013-03-28 17:30:00,
2013-03-28 13:37:00,45.5,32.0,29.98,NNE,15,6.0,12.0,60,0.00,,,0.00,weatherlink.com 1.10,2013-03-28 17:37:00,
2013-03-28 13:50:00,46.0,33.3,29.99,NNW,338,4.0,4.0,61,0.00,,,0.00,Wunderground v.1.15,2013-03-28 17:50:00,
2013-03-28 14:00:00,46.5,32.9,29.98,North,355,5.0,9.0,59,0.00,,,0.00,Wunderground v.1.15,2013-03-28 18:00:00,
2013-03-28 14:07:00,45.8,34.0,29.99,NNW,347,6.0,14.0,63,0.00,,,0.00,weatherlink.com 1.10,2013-03-28 18:07:00,
2013-03-28 14:20:00,45.0,34.3,29.99,NNE,18,4.0,5.0,66,0.00,,,0.00,Wunderground v.1.15,2013-03-28 18:20:00,
2013-03-28 14:30:00,45.5,33.6,29.98,North,360,4.0,5.0,63,0.00,,,0.00,Wunderground v.1.15,2013-03-28 18:30:00,
2013-03-28 14:38:00,46.2,34.0,29.98,NNE,15,2.0,8.0,62,0.00,,,0.00,weatherlink.com 1.10,2013-03-28 18:38:00,
2013-03-28 14:50:00,46.1,34.6,29.98,NNE,26,5.0,5.0,64,0.00,,,0.00,Wunderground v.1.15,2013-03-28 18:50:00,
2013-03-28 15:00:00,46.1,34.2,29.98,North,11,4.0,8.0,63,0.00,,,0.00,Wunderground v.1.15,2013-03-28 19:00:00,
2013-03-28 15:07:00,46.6,34.0,29.98,NNE,26,7.0,11.0,63,0.00,,,0.00,weatherlink.com 1.10,2013-03-28 19:07:00,
2013-03-28 15:20:00,46.3,32.7,29.98,NE,53,6.0,6.0,59,0.00,,,0.00,Wunderground v.1.15,2013-03-28 19:20:00,
2013-03-28 15:30:00,46.0,33.3,29.98,North,355,6.0,6.0,61,0.00,,,0.00,Wunderground v.1.15,2013-03-28 19:30:00,
2013-03-28 15:37:00,46.3,34.0,29.98,NNW,340,2.0,6.0,62,0.00,,,0.00,weatherlink.com 1.10,2013-03-28 19:37:00,
2013-03-28 15:50:00,46.7,33.5,29.98,NNE,22,4.0,6.0,60,0.00,,,0.00,Wunderground v.1.15,2013-03-28 19:50:00,
2013-03-28 16:00:00,47.3,33.7,29.98,NNE,16,3.0,3.0,59,0.00,,,0.00,Wunderground v.1.15,2013-03-28 20:00:00,
2013-03-28 16:08:00,47.1,32.0,29.98,NE,44,5.0,8.0,57,0.00,,,0.00,weatherlink.com 1.10,2013-03-28 20:08:00,
2013-03-28 16:20:00,46.9,32.4,29.98,North,350,4.0,4.0,57,0.00,,,0.00,Wunderground v.1.15,2013-03-28 20:20:00,
2013-03-28 16:30:00,47.0,33.0,29.98,NW,313,3.0,3.0,58,0.00,,,0.00,Wunderground v.1.15,2013-03-28 20:30:00,
2013-03-28 16:38:00,47.3,32.0,29.98,NNE,32,3.0,8.0,56,0.00,,,0.00,weatherlink.com 1.10,2013-03-28 20:38:00,
2013-03-28 16:50:00,47.4,32.5,29.98,NNW,334,2.0,2.0,56,0.00,,,0.00,Wunderground v.1.15,2013-03-28 20:50:00,
2013-03-28 17:00:00,46.8,32.4,29.99,NNW,347,5.0,5.0,57,0.00,,,0.00,Wunderground v.1.15,2013-03-28 21:00:00,
2013-03-28 17:08:00,46.5,32.0,29.99,NE,35,8.0,9.0,57,0.00,,,0.00,weatherlink.com 1.10,2013-03-28 21:08:00,
2013-03-28 17:20:00,46.4,32.4,30.00,North,355,3.0,4.0,58,0.00,,,0.00,Wunderground v.1.15,2013-03-28 21:20:00,
2013-03-28 17:30:00,46.2,32.7,30.00,NNE,12,3.0,3.0,59,0.00,,,0.00,Wunderground v.1.15,2013-03-28 21:30:00,
2013-03-28 17:39:00,45.7,32.0,30.00,NW,313,1.0,9.0,60,0.00,,,0.00,weatherlink.com 1.10,2013-03-28 21:39:00,
2013-03-28 17:50:00,45.7,32.6,30.01,NW,323,3.0,3.0,60,0.00,,,0.00,Wunderground v.1.15,2013-03-28 21:50:00,
2013-03-28 18:00:00,45.9,32.8,30.01,North,355,3.0,4.0,60,0.00,,,0.00,Wunderground v.1.15,2013-03-28 22:00:00,
2013-03-28 18:10:00,46.0,32.0,30.01,NNE,13,0.0,8.0,58,0.00,,,0.00,weatherlink.com 1.10,2013-03-28 22:10:00,
2013-03-28 18:20:00,46.1,32.1,30.01,North,355,3.0,7.0,58,0.00,,,0.00,Wunderground v.1.15,2013-03-28 22:20:00,
2013-03-28 18:30:00,46.1,32.1,30.01,NNW,343,2.0,3.0,58,0.00,,,0.00,Wunderground v.1.15,2013-03-28 22:30:00,
2013-03-28 18:39:00,46.0,32.0,30.02,NNW,338,3.0,6.0,58,0.00,,,0.00,weatherlink.com 1.10,2013-03-28 22:39:00,
2013-03-28 18:50:00,45.8,31.9,30.03,North,355,4.0,4.0,58,0.00,,,0.00,Wunderground v.1.15,2013-03-28 22:50:00,
2013-03-28 19:00:00,45.7,32.2,30.03,WNW,288,1.0,4.0,59,0.00,,,0.00,Wunderground v.1.15,2013-03-28 23:00:00,
2013-03-28 19:09:00,45.7,32.0,30.03,NNW,331,4.0,8.0,59,0.00,,,0.00,weatherlink.com 1.10,2013-03-28 23:09:00,
2013-03-28 19:20:00,45.6,32.5,30.03,NNW,344,2.0,4.0,60,0.00,,,0.00,Wunderground v.1.15,2013-03-28 23:20:00,
2013-03-28 19:30:00,45.5,32.4,30.04,NNW,337,3.0,3.0,60,0.00,,,0.00,Wunderground v.1.15,2013-03-28 23:30:00,
2013-03-28 19:40:00,45.4,32.3,30.04,WNW,292,4.0,4.0,60,0.00,,,0.00,Wunderground v.1.15,2013-03-28 23:40:00,
2013-03-28 19:50:00,45.3,32.2,30.05,NNW,347,4.0,4.0,60,0.00,,,0.00,Wunderground v.1.15,2013-03-28 23:50:00,
2013-03-28 20:00:00,45.1,32.0,30.05,NNW,347,3.0,3.0,60,0.00,,,0.00,Wunderground v.1.15,2013-03-29 00:00:00,
2013-03-28 20:10:00,45.1,32.0,30.05,NNW,340,3.0,7.0,61,0.00,,,0.00,weatherlink.com 1.10,2013-03-29 00:10:00,
2013-03-28 20:20:00,45.0,32.3,30.06,North,5,1.0,3.0,61,0.00,,,0.00,Wunderground v.1.15,2013-03-29 00:20:00,
2013-03-28 20:25:00,44.9,32.0,30.06,NNW,336,4.0,8.0,61,0.00,,,0.00,weatherlink.com 1.10,2013-03-29 00:25:00,
2013-03-28 20:40:00,44.8,32.6,30.06,NW,307,2.0,2.0,62,0.00,,,0.00,Wunderground v.1.15,2013-03-29 00:40:00,
2013-03-28 20:50:00,44.8,32.2,30.06,NNW,332,3.0,3.0,61,0.00,,,0.00,Wunderground v.1.15,2013-03-29 00:50:00,
2013-03-28 21:00:00,44.7,32.5,30.06,NNW,339,3.0,3.0,62,0.00,,,0.00,Wunderground v.1.15,2013-03-29 01:00:00,
2013-03-28 21:09:00,44.4,32.0,30.06,NNW,335,3.0,7.0,62,0.00,,,0.00,weatherlink.com 1.10,2013-03-29 01:09:00,
2013-03-28 21:20:00,44.0,32.2,30.06,WNW,293,2.0,2.0,63,0.00,,,0.00,Wunderground v.1.15,2013-03-29 01:20:00,
2013-03-28 21:25:00,43.8,32.0,30.07,NNW,336,3.0,7.0,63,0.00,,,0.00,weatherlink.com 1.10,2013-03-29 01:25:00,
2013-03-28 21:40:00,43.4,32.0,30.07,West,281,2.0,5.0,64,0.00,,,0.00,Wunderground v.1.15,2013-03-29 01:40:00,
2013-03-28 21:50:00,43.4,32.0,30.07,WNW,292,3.0,5.0,64,0.00,,,0.00,Wunderground v.1.15,2013-03-29 01:50:00,
2013-03-28 21:56:00,43.2,32.0,30.07,NNW,343,0.0,9.0,65,0.00,,,0.00,weatherlink.com 1.10,2013-03-29 01:56:00,
2013-03-28 22:10:00,43.1,32.1,30.08,WNW,297,1.0,1.0,65,0.00,,,0.00,Wunderground v.1.15,2013-03-29 02:10:00,
2013-03-28 22:20:00,42.8,32.2,30.08,WNW,298,1.0,1.0,66,0.00,,,0.00,Wunderground v.1.15,2013-03-29 02:20:00,
2013-03-28 22:25:00,42.7,32.0,30.08,NNW,329,0.0,4.0,66,0.00,,,0.00,weatherlink.com 1.10,2013-03-29 02:25:00,
2013-03-28 22:40:00,42.5,31.9,30.08,West,266,1.0,1.0,66,0.00,,,0.00,Wunderground v.1.15,2013-03-29 02:40:00,
2013-03-28 22:50:00,42.5,31.9,30.08,NW,324,1.0,1.0,66,0.00,,,0.00,Wunderground v.1.15,2013-03-29 02:50:00,
2013-03-28 22:55:00,42.5,32.0,30.08,NNW,342,0.0,5.0,66,0.00,,,0.00,weatherlink.com 1.10,2013-03-29 02:55:00,
2013-03-28 23:00:00,42.4,31.8,30.08,NNW,342,1.0,1.0,66,0.00,,,0.00,Wunderground v.1.15,2013-03-29 03:00:00,
2013-03-28 23:10:00,42.5,31.9,30.08,North,351,2.0,3.0,66,0.00,,,0.00,Wunderground v.1.15,2013-03-29 03:10:00,
2013-03-28 23:20:00,42.7,31.7,30.08,NNW,327,3.0,4.0,65,0.00,,,0.00,Wunderground v.1.15,2013-03-29 03:20:00,
2013-03-28 23:26:00,42.9,32.0,30.08,North,355,6.0,11.0,65,0.00,,,0.00,weatherlink.com 1.10,2013-03-29 03:26:00,
2013-03-28 23:40:00,42.9,31.6,30.08,North,360,2.0,2.0,64,0.00,,,0.00,Wunderground v.1.15,2013-03-29 03:40:00,
2013-03-28 23:50:00,43.0,31.6,30.09,NNW,348,4.0,5.0,64,0.00,,,0.00,Wunderground v.1.15,2013-03-29 03:50:00,
2013-03-28 23:57:00,43.0,31.0,30.09,NNW,346,3.0,7.0,64,0.00,,,0.00,weatherlink.com 1.10,2013-03-29 03:57:00,